Middletown, CT (06459)

2:29 AM EDT on August 30, 2016 (GMT -0400)
Westfield Ridge | | Change Station

Elev 200 ft 41.56 °N, 72.68 °W | Updated 6 minutes ago

Clear
Clear
62.6 °F
Feels Like 62.6 °F
N
0.0
Wind Variable Wind from NW

Today
High -- | Low -- °F
--% Chance of Precip.
Yesterday
High -- | Low -- °F
Precip. -- in
Pressure 30.16 in
Visibility 10.0 miles
Clouds Clear
Dew Point 56 °F
Humidity 79%
Rainfall 0.00 in
Snow Depth Not available.
6:15 AM 7:26 PM
Waning Crescent, 5% visible
METAR KMMK 300553Z AUTO 00000KT 10SM CLR 17/14 A3017 RMK AO2 SLP213 T01670139 10272 20161 51008 TSNO
Pressure 30.16 in
Visibility 10.0 miles
Clouds Clear
Dew Point 56 °F
Humidity 79%
Rainfall 0.00 in
Snow Depth Not available.
6:15 AM 7:26 PM
Waning Crescent, 5% visible
METAR KMMK 300553Z AUTO 00000KT 10SM CLR 17/14 A3017 RMK AO2 SLP213 T01670139 10272 20161 51008 TSNO

10-Day Weather Forecast

Almanac

Astronomy

Aug. 30, 2016 Rise Set
Actual Time
Civil Twilight
Nautical Twilight
Astronomical Twilight
Moon
Length of Visible Light
Length of Day
Tomorrow will be .
, % of the Moon is Illuminated

Today's Extremes

State Highs State Lows

Community

WunderPhotos

Upload Photos

1,935,795 photos uploaded!

WunderBlog® & News

Nearby

Air Quality

  Air Quality AQ Index Pollutant
Not available.

Snow Depth

Station Depth Elevation

Earthquake Activity

City Distance Mag. Time & Date
Minimum magnitude displayed is 2.5.

Coastal Water Temperatures

Place Temperature

Stations

Nearby Weather Stations

Station Location Temp. Windchill Dew Point Humidity Wind Precip. Elev Updated Type
                   

Watches & Warnings

There are currently no watches in effect.